GFSSGP_prec_cloud_132.txt.gz
Cloud_Cover
0 0 3 0 5 5 5 5 100 92 9 100 70 100 100 100 100 100 80 18 25 86 75 100 100 71 17 0 4 0 0 0 0 4 0 5 5 0 0 0 0 2 1 0 0 0 0 0 0
5 0 0 5 3 26 11 5 100 85 20 62 25 53 75 99 100 100 88 92 100 87 97 100 93 100 100 67 29 1 0 0 0 0 0 0 1 1 0 0 0 0 0 0 0 0 0 0 0
82 2 0 4 5 14 97 28 99 68 6 22 95 66 45 40 98 98 91 100 100 97 100 100 97 95 100 97 100 19 5 0 0 0 0 0 0 0 0 0 0 0 0 0 0 0 0 0 0
4 82 0 0 40 83 100 40 100 98 29 5 62 100 95 32 61 93 86 100 94 100 100 100 100 96 100 100 22 16 5 1 0 0 0 0 0 0 0 0 0 0 0 0 0 0 0 0 0
5 15 45 0 5 100 100 23 100 100 96 6 75 46 30 69 5 96 88 98 33 54 100 100 100 100 100 73 7 5 3 0 0 0 0 0 0 0 0 0 0 0 0 0 0 0 0 0 0
5 0 0 2 5 32 100 7 98 98 70 5 77 51 7 33 90 56 5 38 26 100 100 100 100 90 96 36 5 30 5 0 5 0 0 0 0 0 0 0 0 0 0 0 0 0 0 0 0
5 1 0 0 34 5 92 48 5 30 62 45 75 67 7 37 64 5 0 7 5 56 100 100 94 97 24 4 9 29 3 2 1 0 0 5 0 0 0 0 0 0 0 0 0 0 0 0 0
19 4 0 0 71 92 100 56 0 5 100 5 5 18 5 4 0 5 4 4 100 100 96 100 100 100 74 100 100 100 100 2 0 0 0 0 5 0 0 0 0 0 0 0 0 0 0 0 0
5 0 0 0 5 100 100 100 0 0 65 4 5 0 73 9 0 0 2 0 87 99 100 100 100 100 100 100 100 100 18 5 2 5 0 0 6 1 0 0 0 0 0 0 0 0 0 0 0
3 0 3 34 92 100 100 99 4 0 0 1 5 5 37 5 6 17 0 5 100 99 95 71 100 100 100 100 100 98 93 97 61 25 10 25 8 10 5 2 0 0 0 0 0 0 0 0 0
0 3 12 100 100 100 100 93 96 31 2 0 3 5 3 5 72 75 95 32 56 78 87 93 71 98 57 100 100 100 100 100 50 34 82 19 5 3 3 6 0 4 2 0 0 0 0 0 0
1 100 49 100 100 100 100 11 59 100 14 0 6 5 7 83 98 43 4 93 100 28 0 5 100 100 87 100 100 98 93 76 100 96 64 28 13 2 0 5 5 2 6 5 0 0 0 0 0
4 77 88 97 100 100 99 5 85 55 27 0 5 4 5 89 100 100 100 49 43 82 67 100 100 95 100 100 100 100 100 100 100 100 100 100 92 80 15 24 6 1 0 0 0 0 0 0 1
0 2 2 21 95 100 89 53 5 20 3 5 5 5 4 96 100 100 100 100 99 66 100 100 100 100 100 100 100 100 100 100 100 100 100 100 100 100 94 5 31 74 5 0 0 0 0 1 33
0 0 0 0 11 9 5 99 5 5 5 3 35 75 29 100 100 100 100 100 100 100 100 100 100 100 100 100 100 100 100 100 100 100 100 100 100 100 100 22 6 100 91 3 0 0 0 2 5
0 0 0 0 2 5 2 49 98 87 2 5 5 81 100 99 100 100 100 100 100 100 100 100 100 100 100 100 100 100 100 100 100 100 100 100 100 98 100 51 88 76 13 10 7 1 1 26 30
0 0 0 0 0 0 2 6 100 100 58 73 5 73 97 100 98 54 58 42 100 100 100 100 100 100 100 100 100 100 100 100 100 100 100 100 99 100 100 100 100 100 100 100 100 98 68 60 32
0 0 0 0 0 0 3 1 100 99 100 67 47 1 92 100 100 99 78 33 100 100 100 100 100 100 100 100 100 100 100 100 100 100 100 100 95 100 100 100 100 100 100 100 94 89 100 100 61
0 0 0 0 0 0 0 4 74 100 37 100 99 4 2 99 100 100 100 83 100 100 100 100 100 100 100 100 100 100 100 100 100 100 100 100 100 100 100 58 82 83 100 100 100 100 100 100 95
5 1 0 0 0 0 0 0 5 100 6 98 81 4 0 7 100 100 8 76 72 80 78 100 100 100 100 100 100 100 100 100 100 100 100 100 100 100 100 100 100 100 100 100 100 100 100 100 100
35 6 0 0 0 0 0 0 0 51 67 20 100 32 4 0 75 100 100 84 61 99 100 72 100 100 100 100 100 100 100 100 100 100 100 100 100 100 100 81 86 100 100 100 100 100 100 100 99
100 97 2 0 0 0 0 0 0 0 60 31 66 99 48 5 4 100 100 99 15 100 100 83 6 100 100 100 100 100 100 100 100 100 100 100 100 100 100 91 100 100 84 59 99 100 85 98 100
100 16 0 0 0 4 0 4 0 5 0 3 36 100 35 100 39 8 100 100 93 55 5 66 95 94 100 100 100 100 100 100 100 100 100 100 100 100 55 13 100 100 100 80 96 83 98 99 48
100 30 1 0 4 2 4 2 0 16 0 0 0 83 92 72 99 92 100 100 94 7 5 56 44 75 93 100 100 100 100 100 100 100 100 100 100 100 100 82 80 100 97 96 73 89 88 98 32
92 5 0 0 0 19 100 57 0 2 4 4 18 4 21 7 18 100 95 6 5 49 25 5 98 11 14 40 100 100 100 100 100 100 100 100 100 100 100 100 76 68 98 78 100 95 100 100 100
100 5 5 17 72 97 73 11 93 92 94 45 9 54 99 16 4 20 7 5 5 28 100 71 49 100 29 36 100 100 100 100 100 100 100 100 100 98 64 100 80 95 23 61 84 74 100 100 100
18 24 100 96 5 55 3 6 100 98 98 100 3 1 4 5 11 32 71 36 5 57 100 58 96 96 60 42 7 95 100 100 100 100 99 100 54 49 25 66 98 48 89 100 73 74 100 100 92
100 100 82 5 5 100 100 96 100 77 100 100 99 78 69 100 55 82 100 98 87 100 100 100 92 99 72 76 92 68 100 65 76 100 74 71 57 84 89 84 75 100 100 98 100 100 100 57 99
100 100 9 0 0 100 100 98 36 100 100 100 100 94 41 32 14 100 100 100 100 100 84 60 99 100 100 100 100 94 42 91 15 24 1 12 63 95 76 70 71 100 100 89 100 46 97 99 100
100 5 0 0 3 2 72 18 100 44 56 100 100 100 100 95 98 100 100 100 100 100 91 60 5 67 96 70 75 100 42 100 100 100 100 100 100 62 95 99 100 100 76 99 95 91 100 100 45

GFSSGP_prec_cloud_138.txt.gz
Cloud_Cover
0 0 5 16 4 3 1 88 38 50 69 47 5 31 92 100 100 25 5 49 59 48 30 14 5 5 5 5 84 100 62 8 35 5 1 3 0 0 0 0 0 0 0 0 0 0 0 0 0
5 0 3 2 4 4 4 84 50 50 95 13 72 10 92 31 79 100 60 43 57 100 100 60 5 55 7 64 5 7 9 5 5 3 2 1 0 0 0 0 0 0 0 0 0 0 0 0 0
5 5 0 2 0 34 5 83 5 5 79 45 38 38 96 97 30 31 98 64 53 22 32 23 5 2 1 2 5 5 21 5 8 21 4 4 4 0 1 0 0 0 0 0 0 0 0 0 0
5 0 0 0 4 100 40 14 9 5 11 73 95 40 50 98 100 91 72 100 36 35 3 6 5 5 4 5 5 5 5 49 100 100 82 94 5 5 3 3 5 1 0 2 1 0 0 0 0
2 0 0 0 5 6 74 0 0 5 5 23 100 5 92 58 100 100 100 75 93 94 100 100 55 12 33 99 5 86 5 14 94 100 83 5 8 100 91 94 32 5 5 5 5 5 0 0 0
52 0 0 0 14 5 3 4 0 2 4 7 95 35 30 100 91 100 87 44 100 100 100 98 15 10 10 100 45 36 5 86 17 17 6 25 100 99 100 100 71 6 0 0 5 5 5 5 5
66 5 3 5 77 97 4 0 0 0 5 4 18 96 17 100 77 94 99 100 100 96 49 19 22 5 9 23 6 23 100 97 24 5 3 12 28 100 100 16 16 83 100 55 98 86 21 5 1
5 29 0 4 99 100 93 3 0 0 0 5 5 81 100 100 91 100 100 100 100 65 88 82 76 34 30 10 51 84 40 17 12 5 71 7 90 26 9 100 100 100 100 100 100 100 99 96 3
0 34 5 10 98 100 100 57 0 0 0 0 1 11 7 97 100 100 100 100 100 100 86 57 99 100 53 30 18 59 98 66 5 5 82 60 99 92 100 100 100 100 100 100 100 100 52 40 5
0 0 99 100 100 100 100 100 24 0 0 0 0 10 34 92 78 100 100 100 100 100 100 33 87 96 58 100 89 83 16 16 15 7 63 39 100 100 100 100 100 100 100 100 100 100 5 0 0
0 0 100 100 100 100 100 100 97 30 0 0 0 0 2 13 5 44 100 100 100 100 100 100 89 94 100 100 92 100 100 98 98 89 82 100 100 100 100 100 100 100 100 100 100 100 5 4 0
0 0 59 100 100 100 100 100 100 69 18 0 0 4 0 5 14 27 9 5 56 100 100 92 19 100 100 100 98 40 86 100 100 100 100 100 100 100 100 100 100 100 100 100 100 100 76 87 12
0 0 1 100 100 100 100 100 71 6 29 10 0 2 4 5 23 13 5 5 23 80 99 90 100 100 100 27 8 26 100 100 100 100 100 100 100 100 100 100 100 100 100 100 99 93 100 90 70
0 0 0 53 100 100 100 100 100 27 4 17 5 5 0 3 5 15 1 2 5 22 98 100 97 99 97 100 100 100 100 100 100 100 100 100 100 100 100 68 100 100 100 100 100 100 78 94 77
0 0 0 0 69 100 100 67 99 7 5 2 0 5 5 5 0 1 5 2 1 5 25 84 74 100 100 100 100 100 100 100 100 100 100 100 100 100 100 64 100 44 99 100 100 89 100 92 100
0 0 0 0 0 68 53 100 32 5 5 5 0 0 5 5 5 0 0 2 1 5 6 43 100 100 100 100 100 100 100 95 100 100 100 100 100 100 100 100 97 46 99 100 100 97 100 100 20
0 0 0 0 0 0 91 100 100 40 5 5 5 0 0 5 5 5 5 0 0 3 16 47 100 100 100 100 100 100 100 100 100 100 100 100 100 100 100 100 98 100 96 99 100 100 100 100 100
0 0 0 0 0 0 8 100 100 100 42 5 13 22 0 1 44 58 12 15 5 4 1 37 100 100 100 100 100 100 100 100 100 100 100 100 100 100 100 100 100 100 84 81 100 100 100 100 100
1 0 0 0 0 0 0 23 100 100 100 9 5 96 68 0 0 5 5 52 5 4 1 100 100 100 100 100 100 99 100 100 100 100 100 100 100 100 100 100 100 100 100 100 100 100 100 100 100
5 4 0 1 0 0 0 0 77 100 100 99 5 5 31 7 1 0 5 17 94 43 1 100 100 100 100 100 100 100 100 100 100 100 100 100 100 100 100 100 100 100 100 100 100 100 100 100 100
5 5 3 12 5 0 0 0 0 70 93 100 83 5 1 3 5 4 1 5 31 85 6 26 100 100 100 100 98 100 100 100 100 100 100 100 100 94 99 100 93 100 100 100 100 100 100 100 100
80 15 100 6 5 1 0 0 0 0 4 46 100 100 15 0 1 0 0 0 2 14 9 5 12 100 100 100 100 100 100 100 100 100 100 100 100 93 74 95 59 29 94 100 100 100 100 100 100
100 100 100 100 0 5 0 0 0 0 0 1 13 5 5 5 0 0 0 0 0 0 5 77 34 17 100 100 100 100 96 53 100 100 100 100 99 100 100 100 100 100 100 100 100 100 100 100 100
100 100 100 100 13 4 2 0 1 1 0 0 0 0 5 0 0 0 0 0 0 0 0 3 54 100 41 100 100 100 100 100 98 100 100 100 100 100 100 100 100 100 100 100 100 100 100 100 100
100 100 71 32 6 0 5 0 0 4 0 0 0 0 0 0 0 0 0 0 0 0 0 0 85 60 88 62 100 100 100 100 85 100 100 100 100 100 100 100 100 100 100 100 100 100 100 100 100
100 100 58 4 4 1 18 15 10 3 2 0 0 0 0 0 0 0 0 0 0 0 0 0 3 58 63 43 54 28 100 100 100 99 100 100 100 98 56 100 100 100 100 100 100 100 100 100 100
100 100 30 5 5 20 5 5 0 0 1 0 0 0 0 0 0 1 29 55 25 24 31 36 56 48 34 84 40 2 5 21 99 100 100 100 94 21 58 90 75 99 98 100 100 100 100 100 100
100 100 47 31 85 36 5 4 4 1 5 5 2 1 4 34 40 46 59 83 71 38 26 6 5 45 79 86 100 21 35 18 5 46 97 99 89 90 83 96 93 83 90 99 89 100 100 100 100
97 35 10 41 57 53 5 5 2 0 0 0 2 9 94 61 29 46 78 76 52 23 6 49 92 100 69 71 24 100 100 99 26 92 54 99 28 8 77 82 100 97 91 85 98 100 100 100 100
100 100 100 100 99 50 69 4 0 0 5 0 26 66 75 38 37 3 5 24 100 25 49 13 7 92 97 100 100 100 85 41 37 5 100 100 100 100 100 100 81 5 18 33 67 69 6 5 18

GFSSGP_prec_cloud_141.txt.gz
Cloud_Cover
100 95 3 0 0 0 5 41 5 8 5 6 99 100 93 96 93 99 36 44 79 10 5 15 11 90 3 0 5 5 5 4 5 5 5 0 0 5 21 26 5 0 2 0 0 0 0 0 0
98 100 59 0 0 0 0 5 5 4 32 2 91 94 100 89 100 69 100 2 60 93 94 28 5 5 0 0 5 4 5 5 5 5 4 16 92 91 99 16 5 48 5 0 6 0 0 0 0
94 27 100 2 0 0 0 0 65 4 66 11 27 100 100 99 100 100 100 12 19 99 73 58 26 5 0 0 0 0 1 1 0 5 5 20 79 100 100 100 89 74 36 87 2 0 4 41 7
5 79 71 5 0 0 0 0 43 5 8 100 47 49 97 96 73 100 74 100 33 16 15 69 34 5 5 0 1 4 5 3 5 2 3 20 94 95 65 8 73 99 46 51 40 7 6 96 93
5 4 7 5 6 0 0 0 0 5 5 99 100 84 50 83 23 38 74 80 100 41 5 13 5 5 5 5 5 5 94 61 32 5 5 5 37 5 5 5 100 59 58 100 100 100 100 91 22
0 0 9 5 80 40 0 0 0 5 5 27 100 100 89 7 55 26 77 100 99 100 77 5 6 5 3 5 16 13 100 100 100 16 37 5 18 9 28 94 97 60 100 100 100 100 100 100 100
0 0 0 26 100 98 4 0 0 0 0 1 6 99 100 97 20 94 99 100 97 60 68 80 61 5 32 79 12 5 16 13 98 64 12 8 5 6 44 100 98 100 100 100 100 100 100 100 24
0 0 0 6 84 52 60 3 0 0 0 0 5 5 96 100 99 100 98 100 100 100 100 100 100 100 100 97 69 98 100 90 100 100 66 84 11 13 5 100 100 100 100 100 100 24 100 100 60
0 0 0 15 100 99 70 69 1 0 0 0 2 5 28 98 100 100 100 100 100 100 100 100 100 81 100 100 100 94 22 17 100 100 100 100 88 15 5 100 100 100 77 100 50 5 59 100 100
0 0 0 17 100 100 100 39 30 2 0 0 0 59 98 98 73 100 100 100 100 100 100 100 100 97 77 100 95 76 99 97 100 100 100 100 98 70 98 100 94 100 64 6 2 5 5 87 41
0 0 0 0 76 100 100 59 2 5 1 0 0 24 98 50 75 95 100 100 100 100 100 100 100 64 70 95 78 79 95 100 100 88 98 54 70 100 100 100 95 100 41 7 0 27 3 5 78
0 0 0 0 1 100 100 99 0 0 5 4 0 2 33 95 21 36 94 100 100 100 100 100 100 100 95 59 10 82 96 99 100 86 47 96 100 100 100 100 100 93 80 54 47 7 11 63 100
0 0 0 0 0 94 100 100 5 0 0 4 28 1 0 81 61 3 69 90 100 100 100 100 100 100 76 61 28 5 9 100 100 80 81 100 100 100 100 100 100 99 100 100 92 6 75 76 22
0 0 0 0 0 2 100 78 5 0 0 0 18 63 2 3 92 67 9 36 69 100 100 100 100 89 100 98 98 100 100 95 100 100 100 100 96 100 100 92 100 91 72 100 80 99 100 91 6
0 0 0 0 0 0 1 96 5 0 0 0 0 2 7 5 4 75 29 5 34 11 100 100 100 100 100 100 70 78 73 100 100 100 92 100 37 85 44 58 98 100 100 100 100 74 94 14 98
0 0 0 0 0 0 0 2 6 0 0 0 0 0 0 67 5 5 8 5 5 5 5 5 99 94 100 100 100 100 100 100 100 100 100 93 100 68 100 100 100 100 100 100 100 50 28 28 88
0 0 0 0 0 0 0 1 3 8 3 0 1 0 0 0 4 5 5 5 5 0 0 5 10 84 96 80 100 100 100 100 99 100 100 100 96 60 63 98 100 94 100 100 100 100 92 100 85
0 0 0 0 0 0 0 0 5 9 5 5 5 5 2 0 0 0 2 5 70 5 0 0 1 6 29 69 100 100 100 100 73 100 100 96 88 59 76 75 100 100 100 100 97 100 100 100 100
4 4 0 0 2 0 0 0 0 58 62 5 5 5 86 5 0 0 0 5 0 5 5 5 5 5 5 22 95 100 100 100 100 100 100 99 100 87 100 100 100 91 99 100 100 100 100 100 100
100 5 13 3 4 1 0 0 0 6 9 19 5 5 67 68 5 0 0 0 4 5 5 5 35 57 41 88 96 100 100 100 100 100 100 36 100 96 100 100 100 93 66 100 100 100 95 100 100
100 98 90 100 85 3 0 0 0 0 0 0 5 16 5 5 5 0 0 0 0 0 3 4 5 5 5 5 26 97 100 100 100 100 97 61 35 96 100 100 100 100 99 100 89 100 100 100 100
100 100 100 100 100 3 4 1 0 0 0 0 0 2 5 5 5 5 0 0 0 0 4 5 4 5 5 8 37 63 100 100 100 100 90 48 85 50 100 100 100 100 100 100 100 99 100 100 100
100 100 100 100 100 37 4 5 0 0 0 0 0 0 0 5 9 6 1 0 0 0 0 6 9 5 5 5 5 14 100 100 100 100 99 23 90 95 100 100 100 100 100 100 100 100 100 100 100
100 100 100 100 100 100 97 5 38 36 1 0 0 0 0 0 5 68 96 9 4 5 4 0 49 67 42 5 16 98 95 100 100 100 100 94 100 100 100 100 96 97 100 100 100 100 100 100 100
100 100 100 100 100 80 100 69 10 10 5 0 0 0 0 0 0 5 5 11 6 5 40 6 1 4 10 5 5 7 49 55 82 100 100 100 100 30 45 100 99 100 91 93 100 100 100 100 100
100 100 100 100 100 10 57 28 38 5 5 5 0 0 0 0 0 0 1 5 11 87 9 4 5 7 34 95 86 94 86 100 94 98 100 100 100 100 58 9 25 67 100 100 100 100 100 100 100
100 100 100 100 100 100 76 12 100 100 18 5 5 0 0 0 0 0 0 0 1 5 5 12 36 99 78 59 59 78 51 80 99 96 100 97 35 22 80 92 100 97 99 99 96 100 100 100 100
100 100 100 100 100 100 100 57 32 21 57 5 0 5 0 0 0 28 57 36 25 29 57 74 71 98 26 5 66 10 5 17 57 8 12 10 13 82 47 42 99 100 94 88 71 81 96 100 100
70 94 100 100 100 100 100 100 56 5 10 49 88 36 91 98 100 100 100 100 100 97 78 72 12 30 40 38 8 14 91 74 60 33 23 59 68 6 5 45 62 100 78 78 81 94 70 92 99
100 100 100 100 100 100 100 100 100 8 6 5 45 100 100 100 100 98 35 24 10 76 83 100 70 96 95 76 84 100 100 99 95 100 100 100 12 10 18 5 86 100 100 100 100 100 99 80 95

GFSSGP_prec_cloud_147.txt.gz
Cloud_Cover
49 17 1 97 100 100 100 100 100 100 96 25 100 100 99 68 45 100 100 80 19 2 5 4 4 96 5 100 86 5 5 5 5 8 5 25 18 6 5 5 51 46 63 89 56 14 100 100 5
12 78 12 1 100 100 100 100 100 100 91 98 86 100 100 100 46 61 100 100 98 100 10 0 6 85 37 100 100 91 18 4 5 5 42 97 6 5 5 15 24 10 15 58 53 14 100 100 8
5 59 23 5 47 100 100 100 100 91 100 58 47 86 100 100 98 63 96 100 100 83 64 5 5 23 38 75 100 100 18 5 0 5 55 5 5 12 5 60 11 6 2 5 5 5 90 90 10
5 9 74 5 4 64 100 100 85 74 100 100 50 14 99 100 100 100 61 62 100 20 42 28 9 90 56 22 86 7 5 5 9 5 5 5 5 5 5 5 5 5 0 0 5 5 6 26 0
4 4 38 6 25 98 31 100 94 88 75 100 100 66 33 99 100 100 85 49 100 7 86 100 8 5 5 95 20 22 100 97 21 13 52 100 23 8 5 1 4 0 0 0 46 48 4 0 1
0 0 0 65 100 100 70 94 100 44 5 11 78 100 98 90 85 96 98 82 100 80 12 98 87 24 5 48 14 5 64 61 5 66 100 100 100 100 72 5 0 0 0 0 0 11 5 3 5
0 0 0 19 100 100 59 7 5 4 59 8 1 22 15 72 80 86 100 99 100 91 100 100 98 100 77 5 5 3 5 36 100 100 100 75 76 100 93 68 7 6 0 0 0 2 0 98 12
0 0 0 0 92 100 85 62 5 0 5 5 24 2 18 14 44 93 90 100 100 65 92 99 100 100 100 100 39 6 5 7 5 5 40 5 5 100 100 100 98 91 2 0 0 1 100 81 51
0 0 0 0 4 100 100 17 95 85 3 4 5 34 44 15 64 99 89 82 100 100 100 100 100 100 100 100 100 100 99 74 29 7 21 85 6 44 100 16 95 6 5 10 5 5 100 72 100
0 0 0 0 2 32 100 80 100 100 5 2 38 0 7 1 5 74 100 85 100 100 100 100 100 100 100 67 52 91 70 44 39 27 42 100 72 51 71 51 36 5 5 5 7 76 97 99 100
0 0 0 0 0 4 0 27 100 76 47 93 12 0 0 0 5 7 91 100 97 100 100 100 100 100 100 89 100 91 15 12 9 12 5 15 27 5 29 47 71 6 5 86 51 100 99 85 100
0 0 0 0 0 0 0 1 100 45 85 100 52 2 0 0 3 5 11 89 100 100 100 100 100 100 100 100 100 98 94 53 56 10 11 22 5 50 85 65 15 5 16 100 5 96 92 50 5
0 0 0 0 0 0 0 0 3 28 100 13 2 4 4 0 0 1 27 49 100 100 100 100 100 100 100 100 86 84 100 100 100 96 9 28 39 35 31 97 88 98 84 48 94 97 100 8 59
43 0 0 0 0 0 0 0 0 1 45 2 5 81 88 2 0 0 24 72 57 97 100 100 100 100 100 100 78 71 53 99 100 97 84 14 39 71 100 100 93 69 57 40 48 79 71 14 5
81 2 0 0 0 0 0 0 0 0 0 0 100 98 67 64 5 4 14 3 5 58 100 100 100 100 100 100 100 100 100 100 100 100 100 100 100 100 100 100 5 5 7 22 19 5 5 5 5
66 86 0 0 0 0 0 0 0 0 0 0 52 100 14 74 98 10 26 54 9 95 97 86 100 100 100 100 100 100 100 100 100 100 100 100 100 100 100 100 77 21 8 9 5 5 12 56 12
27 61 20 0 0 0 0 0 0 0 0 0 1 89 100 30 38 100 100 76 100 100 92 96 33 86 100 100 100 100 100 100 100 100 100 100 100 100 100 100 100 100 88 62 6 5 10 8 14
42 56 93 5 0 0 0 0 0 0 0 0 0 2 66 100 93 52 85 100 100 100 100 95 100 72 44 59 62 100 100 100 100 100 100 100 100 100 100 100 100 100 100 59 6 5 5 8 62
100 97 100 100 6 0 0 0 0 0 0 0 0 0 0 27 100 95 95 88 100 100 100 100 100 100 100 100 79 6 21 100 100 100 100 100 100 100 100 100 100 100 100 79 84 7 100 90 30
100 98 100 100 86 5 1 0 0 0 0 0 0 0 0 0 99 100 100 100 100 100 91 81 100 100 100 100 100 50 31 7 35 92 100 100 100 100 90 99 100 100 100 94 72 62 78 100 100
99 95 100 100 87 5 5 0 0 0 0 0 0 0 0 0 16 100 100 100 100 100 100 100 87 90 100 76 57 83 69 94 55 32 9 5 2 16 2 3 5 79 100 100 100 85 100 73 63
100 19 100 100 100 34 10 1 0 0 0 0 0 0 0 0 0 31 100 100 100 100 100 100 100 100 98 36 7 21 93 72 59 98 94 100 41 8 50 78 86 98 99 100 100 100 96 100 98
98 44 96 100 100 100 83 5 0 0 0 0 0 0 0 0 1 0 0 79 100 100 81 71 100 100 100 100 100 100 62 92 64 80 25 4 10 2 87 95 98 100 100 100 100 100 100 100 100
100 100 100 100 100 100 99 5 5 0 0 0 0 0 0 0 0 4 4 1 52 100 100 100 83 70 95 70 91 96 100 96 68 44 15 1 2 2 6 12 87 98 100 100 90 98 74 31 99
100 100 100 100 100 100 98 63 54 0 0 0 0 0 0 0 0 0 5 91 44 28 96 30 88 100 84 86 88 96 100 96 63 70 17 20 100 88 17 28 83 81 11 65 83 74 16 31 85
68 28 19 7 98 100 100 100 19 4 1 0 0 0 0 0 0 0 0 0 10 50 90 5 28 100 78 100 76 100 100 100 100 86 35 64 81 56 14 5 8 5 5 5 26 67 24 57 46
98 86 84 100 100 100 100 100 99 5 19 5 0 0 0 0 0 0 0 0 0 0 0 0 0 33 7 100 99 98 56 49 39 68 37 57 50 57 9 56 13 10 9 6 18 12 6 5 7
73 70 100 95 100 100 100 100 100 100 100 61 36 4 0 0 0 0 0 0 0 0 0 19 47 12 100 100 100 92 63 71 88 89 70 76 96 39 10 5 5 15 54 47 80 5 5 12 10
98 100 100 100 100 100 100 100 100 100 100 100 100 24 6 5 0 0 0 1 0 0 24 72 18 100 97 64 2 0 1 2 74 72 86 93 94 73 51 21 73 40 37 42 68 68 85 88 20
5 4 74 100 100 100 100 100 100 100 100 100 89 100 40 1 0 0 0 3 8 46 87 100 96 41 6 4 0 0 0 0 0 0 4 4 4 3 5 5 42 80 77 95 97 100 99 85 99